STARLINK-6149, 57122

Orbit data source: Space-Track

STARLINK-6149, 57122 is a payload satellite owned by SpaceX/Seattle (US) in LEO that was launched on Fri, 23 Jun 2023 UTC via an FALCON 9 launch vehicle from the Air Force Eastern Test Range (AFETR). Payload-class satellites include a variety of spacecraft equipped with specific instruments for various scientific and technological missions. These include communications satellites like Starlink; space stations such as the ISS; scientific satellites like the Hubble; Earth observation satellites from companies like Planet Labs, Umbra, and HawkEye 360; GPS; miniature CubeSats for education and research; and military/defense satellites.

Loading next visibility...
Identifier
57122, 2023-090X
Orbit
LEO
Country
Flag of USUS
Related business
Manufacturer
SpaceX/Seattle
Mission
Operational Commercial Communications
Bus & Motor
STARLINK, Unknown motor
Mass
305 kg wet, ~290 kg dry
Launch date (UTC)
2023-06-23 (3 years ago)
Launch vehicle
FALCON 9
Launch site
Air Force Eastern Test Range (AFETR)
Object type
Payload
Rocket body
Debris
Shape & HBR
Box + 1 Pan, 10.1 m
Radar Cross Section
11.087 m², Large (>1 m²)

Expand to show TLE details & history
Last TLE update: 2 days ago

TLE from 2 days ago
0 STARLINK-6149
1 57122U 23090X   26171.11713679  .00000350  00000-0  22228-4 0  9991
2 57122  43.0019  63.4075 0001172 252.7011 107.3713 15.27577370165996
Epoch: 2026-06-20T02:48Z
TLE epoch observation values (Epoch: 2026-06-20T02:48:40.618Z)
Latitude
0.00001°
Longitude
112.9019°
Altitude
483.073 km
Speed
7.626 km/s
True Right ascension
04h 13m 37s
True Declination
0° 00' 00"
Sunlit
Object was in daylight at epoch
Visualization orbit readout
Latitude
Unknown
Longitude
Unknown
Altitude
Unknown
Speed
Unknown
Apparent Right ascension
Unknown
Apparent Declination
Unknown
Sunlit
N/A
Visualization observer readout
Local Sidereal Time
21:32:51
Azimuth
Unknown
Elevation
Unknown
Doppler factor
Unknown
Orbital elements
Apogee altitude
485.806 km
Perigee altitude
484.197 km
Semi-major axis
6,863.139 km
Eccentricity
0.00012
Inclination
43.0019°
RAAN
63.4075°
Arg. of periapsis
252.7011°
True anomaly
107.38412°
Mean anomaly
107.3713°
Eccentric anomaly
107.37771°
Mean motion
3.81732 °/min
Orbital period
94.31 mins
BSTAR
0.000022228
Loading maneuver chart data...
Computing Atmospheric mass density...
Loading historical data...
Loading historical data...
Loading historical data...
Loading historical data...
Loading historical data...
Loading historical data...
Loading historical data...

Documentation

Showing up to 5 results
|